Regional Weather Roundup
Issued by NWS

Home | Current Version | Previous Version | Graphics & Text | Print | Product List | Glossary On
Versions: 1 2 3 4 5 6 7 8 9 10 11 12 13 14 15 16 17 18 19 20 21 22 23 24 25 26 27
000
ASUS45 KSLC 290910
RWRUT

UTAH REGIONAL WEATHER ROUNDUP
NATIONAL WEATHER SERVICE SALT LAKE CITY UT
300 AM MDT FRI JUL 29 2016

UTZ001>011-023>025-291000-

NORTHERN UTAH

CITY           SKY/WX    TMP DP  RH WIND       PRES   REMARKS
BRIGHAM CITY     N/A     66  44  44 CALM      30.04F
HILL AFB       CLEAR     73  38  27 SE16      30.07F
LOGAN          CLEAR     62  45  53 E5        30.07F
OGDEN          CLEAR     72  39  30 S8        30.04F
PROVO AIRPORT  CLEAR     68  39  34 CALM      30.06S
SALT LAKE CITY PTCLDY    78  42  27 S5        30.02F
VERNAL         CLEAR     72  28  19 NW8       30.11F
WENDOVER       CLEAR     77  37  24 CALM      30.06R
HEBER CITY     CLEAR     54  41  62 CALM      30.17S
WEST JORDAN    CLEAR     72  41  33 CALM      30.07F

$$

UTZ012>022-026-027-291000-

SOUTHERN/CENTRAL UTAH

CITY           SKY/WX    TMP DP  RH WIND       PRES   REMARKS
BLANDING       PTCLDY    74  30  20 N7        30.20R
BRYCE CANYON   CLEAR     52  38  58 W3        30.34F
CEDAR CITY     PTCLDY    72  37  28 S7        30.16S
DELTA          PTCLDY    70  34  26 E5        30.06F
MILFORD        PTCLDY    74  37  26 S6        30.08F
MOAB/CYNLANDS  CLEAR     76  26  15 W5        30.00S
PRICE          CLEAR     71  28  20 N10       30.15F
ST GEORGE      SUNNY     90  45  20 S5        29.93S

$$

REGIONAL REPORTS     COLORADO/ARIZONA

CITY           SKY/WX    TMP DP  RH WIND       PRES   REMARKS
CRAIG, CO      CLOUDY    51  39  63 SE5       30.19S
GRAND JUNCTION CLEAR     72  29  20 NE7       30.04S
RIFLE          CLEAR     60  41  49 NE5       30.13F
MONTROSE       CLOUDY    64  37  36 SE7       30.14R
CORTEZ         CLEAR     63  39  41 E3        30.15S
PAGE, AZ       CLEAR     83  40  21 CALM      29.99F
GRAND CANYON   PTCLDY    54  48  80 NE6       30.25F HAZE
KINGMAN        PTCLDY    78  46  32 S6        29.97S
FLAGSTAFF      MOCLDY    71  39  31 VRB3      30.26F

$$

REGIONAL REPORTS    NEVADA/IDAHO/WYOMING

CITY           SKY/WX    TMP DP  RH WIND       PRES   REMARKS
LAS VEGAS, NV  PTCLDY    97  47  18 S7        29.78F HX  93
ELY            MOCLDY    68  34  28 CALM      30.21S
ELKO           CLEAR     65  36  34 CALM      30.11S
POCATELLO, ID  CLEAR     62  36  37 SW8       30.05S
BURLEY         CLEAR     61  44  53 SW7       30.02S
EVANSTON, WY   CLOUDY    59  32  36 E9        30.29S
ROCK SPRINGS   CLEAR     60  44  55 E9        30.27F
KEMMERER         N/A    N/A N/A N/A N10       30.32R

$$




USA.gov is the U.S. government's official web portal to all federal, state and local government web resources and services.